Regional Weather Roundup
Issued by NWS Boston, MA

Current Version | Previous Version | Text Only | Print | Product List | Glossary Off
Versions: 1 2 3 4 5 6 7 8 9 10 11 12 13 14 15 16 17 18 19 20 21 22 23 24 25 26 27 28 29 30 31 32 33 34 35 36 37 38 39 40 41 42 43 44 45 46 47 48 49 50
000 ASUS41 KBOX 200510 RWRBOX REGIONAL WEATHER ROUNDUP NATIONAL WEATHER SERVICE BOSTON/NORTON MA 100 AM EDT FRI APR 20 2018 NOTE: "FAIR" INDICATES FEW OR NO CLOUDS BELOW 12,000 FEET WITH NO SIGNIFICANT WEATHER AND/OR OBSTRUCTIONS TO VISIBILITY. MAZALL-200600- EASTERN MASSACHUSETTS CITY SKY/WX TMP DP RH WIND PRES REMARKS BOSTON CLOUDY 40 30 67 W15 29.84R WCI 32 BEVERLY CLOUDY 40 28 62 NW12G22 29.82R LAWRENCE CLOUDY 41 27 57 W10 29.84R BEDFORD CLOUDY 38 28 67 W12 29.84R WCI 30 BLUE HILL N/A 36 30 79 NW14G25 29.81R WCI 27 NORWOOD CLOUDY 41 31 67 W9 29.85R MARSHFIELD FAIR 39 32 75 VRB6G14 29.83R PLYMOUTH CLOUDY 40 33 76 W14 29.84R TAUNTON CLOUDY 40 31 70 W10 29.85R NEW BEDFORD CLOUDY 39 32 76 W14 29.85R WCI 31 $$ MAZALL-200600- CAPE COD AND THE ISLANDS CITY SKY/WX TMP DP RH WIND PRES REMARKS FALMOUTH N/A 39 34 81 NW12 29.84 WCI 32 HYANNIS CLOUDY 40 34 79 NW9 29.80R CHATHAM LGT RAIN 41 38 89 VRB3 29.81R PROVINCETOWN CLOUDY 40 33 76 NW16G23 29.82R WCI 31 NANTUCKET LGT RAIN 40 36 86 NW15G23 29.82R WCI 32 MARTHAS VNYRD CLOUDY 40 32 73 NW13G22 29.84R $$ MAZALL-200600- CENTRAL AND WESTERN MASSACHUSETTS CITY SKY/WX TMP DP RH WIND PRES REMARKS WORCESTER CLOUDY 32 27 81 W17 29.84R WCI 21 FITCHBURG MOCLDY 39 30 70 NW13 29.86R WCI 31 ORANGE CLOUDY 35 27 72 W10 29.89R WCI 27 SPRINGFIELD FAIR 37 27 65 W12 29.91 WCI 30 WESTFIELD CLOUDY 37 26 64 NW12G20 29.92R WCI 29 NORTH ADAMS LGT SNOW 31 28 89 W6 29.94R FOG WCI 25 PITTSFIELD CLOUDY 31 24 75 W15G25 29.90R WCI 20 $$ RIZALL-200600- RHODE ISLAND CITY SKY/WX TMP DP RH WIND PRES REMARKS PROVIDENCE CLOUDY 39 31 72 NW15G22 29.88R WCI 31 NEWPORT CLOUDY 39 31 72 NW16 29.87R WCI 30 BLOCK ISLAND CLOUDY 38 30 73 NW13G22 29.91R WCI 30 SMITHFIELD LGT RAIN 36 29 75 MISG 29.86R WESTERLY CLOUDY 39 30 70 VRB6 29.91R $$ CTZALL-200600- CONNECTICUT CITY SKY/WX TMP DP RH WIND PRES REMARKS BRADLEY INTL CLOUDY 36 26 67 NW10 29.93R WCI 28 HARTFORD CLOUDY 38 25 59 NW9 29.94R WCI 31 BRIDGEPORT FAIR 37 26 64 W7 29.97R WCI 32 DANBURY FAIR 35 24 64 NW8G20 29.98R WCI 29 GROTON FAIR 38 28 67 W8 29.92R NEW HAVEN FAIR 39 26 59 NW7 29.96R CHESTER FAIR 36 25 64 VRB7G23 29.92R WCI 30 MERIDEN FAIR 36 25 64 NW8G23 29.95R WCI 30 WILLIMANTIC FAIR 38 28 67 W10 29.91R WCI 31 OXFORD MOCLDY 33 26 75 NW5 29.95R WCI 29 $$ MEZ002-015-021-024-NHZ003-005-008-011-012-014-VTZ005-008-200600- NORTHERN NEW ENGLAND CITY SKY/WX TMP DP RH WIND PRES REMARKS PORTLAND ME FAIR 39 30 70 NW6 29.78R BANGOR ME CLOUDY 38 32 79 NW9 29.72S WCI 31 CONCORD NH CLOUDY 37 28 70 NW14G20 29.83R WCI 28 MANCHESTER NH CLOUDY 40 27 59 NW13 29.83R NASHUA NH CLOUDY 38 28 67 W10 29.85R WCI 31 PORTSMOUTH NH CLOUDY 39 28 66 W8 29.79 JAFFREY NH CLOUDY 34 30 85 W7 29.84R WCI 28 KEENE NH LGT RAIN 34 28 79 W7 29.89R WCI 28 BURLINGTON VT LGT SNOW 35 27 72 NW14G23 29.92R WCI 26 MT. WASHINGTON SNOW 14 14 100 NW39G46 N/A VSB 0 WCI -9 $$ NYZ052-076-200600- EASTERN NEW YORK CITY SKY/WX TMP DP RH WIND PRES REMARKS ALBANY CLOUDY 34 23 64 W14G25 29.98R WCI 25 NEW YORK CITY FAIR 40 24 53 NW18 30.02R WCI 31 $$ ANZALL-200600- MARINE OBSERVATIONS STATION/POSITION TIME TEMP WIND PRES VSBY WAVE AIR SEA DIR/SP/G HT/PER (UTC) (F) (DEG/KT/KT) (MB) (MI) (FT/S) BOSTON BUOY 0450 41 42 300/ 19/ 23 1008.6R 3/ 3 BUZZARDS BAY 0400 40 310/ 22/ 25 1011.4R NANTUCKET SOUND 0350 42 43 300/ 17/ 21 1008.7 1/ 3 MASS BAY-STELLWA 0404 40 41 1007.7R 2/ 3 ISLE OF SHOALS 0400 40 300/ 17/ 19 1008.3R S OF BLOCK IS 0443 41 N/A 5/ 5 $$ ......................KEY......................... SKY/WX - SKY CONDITION/PRESENT WEATHER TMP - TEMPERATURE IN FAHRENHEIT DWPT - DEWPOINT IN FAHRENHEIT RH - RELATIVE HUMIDITY IN PERCENT WIND - DIRECTION AND SPEED IN MPH PRES - MEAN SEA LEVEL PRESSURE IN INCHES OF HG WCI - WIND CHILL INDEX VSB - VISIBILITY IN MILES HX - HEAT INDEX TC - TEMPERATURE IN CELSIUS VRB - VARIABLE WIND DIRECTION N/A - NOT AVAILABLE

USA.gov is the U.S. government's official web portal to all federal, state and local government web resources and services.